Усть-Пит

Россия / Красноярский край     58°58′57″N   91°45′36″E
темп.,
°C
ветер,
м/с
пор.,
м/с
влажн.,
%
обл.,
%
осадки,
мм/ч
давл.,
гПа
погр.,
м
18 мая, вт
вт1801:00+3ссв1143100 0.0 101210
04:00+2в115099 0.0 101010
07:00+6всв1243100 0.0 1010144
10:00+11с24263 0.0 10081395
13:00+13с45215 0.0 10062168
16:00+14ссз45185 0.0 10062445
19:00+12с452611 0.0 10062005
22:00+5с22465 0.0 100825
19 мая, ср
ср1901:00+2ссв225931 0.0 101044
04:000с226352 0.0 101039
07:00+4ссз35535 0.0 1009341
10:00+8ссз44355 0.0 10081752
13:00+10сз442652 0.0 10072522
16:00+10с4431100 0.0 10062361
19:00+9ссв3535100 0.0 10072175
22:00+4всв2671100 0.3 1009318
20 мая, чт
чт2001:00+2ссв41087100 1.3 1009645
04:00+1с4897100 3.9 1008447
07:00+1всв41196100 6.4 1009777
10:00+3всв51192100 1.9 1011913
13:00+6в51078100 2.6 10121330
16:00+9в3659100 0.6 10121426
19:00+9зюз236594 0.8 1013197
22:00+3с1184100 0.0 101518
21 мая, пт
пт2101:00+2ссв23835 0.0 101748
04:00−1с21900 0.0 101821
07:00+5ссз13710 0.0 1019179
10:00+10сз33534 0.0 10201267
13:00+12зсз444378 0.0 10191996
16:00+13зсз453978 0.0 10192116
19:00+12зсз364656 0.0 1019834
22:00+6з2169100 0.0 101915
22 мая, сб
сб2201:00+5зюз1177100 0.0 101915
04:00+5ю2279100 0.0 101830
07:00+7юз2672100 0.0 1017808
10:00+5ююз4793100 1.3 1015881
13:00+5ю3896100 3.7 1013960
16:00+6ю2696100 0.4 1012518
19:00+5юв2398100 0.6 1012188
22:00+5в1199100 0.6 101348